TimeCST,TemperatureF,Dew PointF,Humidity,Sea Level PressureIn,VisibilityMPH,Wind Direction,Wind SpeedMPH,Gust SpeedMPH,PrecipitationIn,Events,Conditions,WindDirDegrees,DateUTC
12:15 AM,35.4,14.5,42,30.20,10.0,SSE,3.5,-,N/A,,Clear,150,2012-12-05 06:15:00
12:35 AM,26.8,13.8,58,30.20,10.0,SE,4.6,-,N/A,,Clear,140,2012-12-05 06:35:00
12:55 AM,26.2,14.4,61,30.20,10.0,East,4.6,-,N/A,,Clear,100,2012-12-05 06:55:00
1:15 AM,26.8,14.0,59,30.18,10.0,SE,4.6,-,N/A,,Clear,130,2012-12-05 07:15:00
1:55 AM,31.3,15.8,53,30.18,10.0,SSE,5.8,-,N/A,,Clear,150,2012-12-05 07:55:00
2:15 AM,28.6,15.8,59,30.18,10.0,SE,5.8,-,N/A,,Clear,130,2012-12-05 08:15:00
2:35 AM,28.4,15.8,59,30.17,10.0,ESE,3.5,-,N/A,,Clear,110,2012-12-05 08:35:00
2:55 AM,27.7,15.4,60,30.18,10.0,ESE,4.6,-,N/A,,Clear,110,2012-12-05 08:55:00
3:15 AM,28.0,14.9,58,30.17,10.0,East,5.8,-,N/A,,Clear,90,2012-12-05 09:15:00
3:35 AM,27.0,14.9,60,30.17,10.0,Calm,Calm,-,N/A,,Clear,0,2012-12-05 09:35:00
3:55 AM,26.8,14.9,61,30.16,10.0,Calm,Calm,-,N/A,,Clear,0,2012-12-05 09:55:00
4:15 AM,38.8,17.1,41,30.15,10.0,South,10.4,-,N/A,,Clear,180,2012-12-05 10:15:00
4:35 AM,39.2,16.0,39,30.13,10.0,South,10.4,-,N/A,,Clear,170,2012-12-05 10:35:00
4:55 AM,38.3,15.8,40,30.13,10.0,South,9.2,-,N/A,,Clear,170,2012-12-05 10:55:00
5:15 AM,38.3,15.4,39,30.13,10.0,SSE,9.2,-,N/A,,Clear,160,2012-12-05 11:15:00
5:35 AM,37.9,15.4,40,30.12,10.0,South,6.9,-,N/A,,Clear,170,2012-12-05 11:35:00
5:55 AM,38.3,15.1,39,30.12,10.0,SSE,3.5,-,N/A,,Clear,160,2012-12-05 11:55:00
6:15 AM,38.5,15.4,39,30.11,10.0,South,6.9,-,N/A,,Clear,170,2012-12-05 12:15:00
6:35 AM,39.2,14.9,37,30.10,10.0,South,10.4,-,N/A,,Clear,190,2012-12-05 12:35:00
6:55 AM,39.6,14.9,37,30.10,10.0,South,10.4,-,N/A,,Clear,190,2012-12-05 12:55:00
8:35 AM,40.5,15.8,37,30.07,10.0,South,6.9,-,N/A,,Clear,190,2012-12-05 14:35:00
8:55 AM,41.2,16.3,37,30.06,10.0,South,5.8,-,N/A,,Clear,170,2012-12-05 14:55:00
9:15 AM,41.9,17.4,37,30.06,10.0,South,10.4,16.1,N/A,,Clear,190,2012-12-05 15:15:00
9:35 AM,42.8,18.1,37,30.06,10.0,South,10.4,-,N/A,,Clear,190,2012-12-05 15:35:00
9:55 AM,43.5,18.5,37,30.04,10.0,South,12.7,19.6,N/A,,Clear,180,2012-12-05 15:55:00
10:15 AM,45.9,19.4,35,30.04,10.0,South,11.5,-,N/A,,Clear,190,2012-12-05 16:15:00
10:35 AM,47.5,20.3,34,30.04,10.0,South,16.1,-,N/A,,Clear,190,2012-12-05 16:35:00
10:55 AM,48.2,21.2,34,30.02,10.0,South,15.0,-,N/A,,Clear,190,2012-12-05 16:55:00
11:15 AM,48.7,22.1,35,30.01,10.0,South,12.7,16.1,N/A,,Clear,180,2012-12-05 17:15:00
11:35 AM,50.0,22.1,33,30.00,10.0,South,11.5,17.3,N/A,,Clear,180,2012-12-05 17:35:00
11:55 AM,51.1,23.4,34,29.97,10.0,South,19.6,25.3,N/A,,Clear,190,2012-12-05 17:55:00
12:15 PM,53.8,23.9,31,29.97,10.0,SSW,11.5,23.0,N/A,,Clear,200,2012-12-05 18:15:00
12:35 PM,55.0,24.1,30,29.96,10.0,South,11.5,-,N/A,,Clear,180,2012-12-05 18:35:00
12:55 PM,55.0,24.3,30,29.94,10.0,South,16.1,19.6,N/A,,Clear,190,2012-12-05 18:55:00
1:15 PM,56.5,24.6,29,29.92,10.0,SSW,19.6,-,N/A,,Clear,200,2012-12-05 19:15:00
1:35 PM,57.9,24.6,28,29.91,10.0,South,19.6,26.5,N/A,,Clear,180,2012-12-05 19:35:00
2:15 PM,58.6,26.1,29,29.89,10.0,South,21.9,25.3,N/A,,Clear,190,2012-12-05 20:15:00
2:35 PM,59.5,26.1,28,29.87,10.0,South,20.7,28.8,N/A,,Clear,190,2012-12-05 20:35:00
2:55 PM,59.2,25.2,27,29.85,10.0,South,20.7,26.5,N/A,,Clear,180,2012-12-05 20:55:00
3:15 PM,60.6,25.3,26,29.84,10.0,South,18.4,-,N/A,,Clear,190,2012-12-05 21:15:00
3:35 PM,61.0,25.3,26,29.84,10.0,South,21.9,25.3,N/A,,Clear,190,2012-12-05 21:35:00
3:55 PM,60.3,25.5,27,29.84,10.0,South,18.4,25.3,N/A,,Clear,180,2012-12-05 21:55:00
4:15 PM,59.9,25.5,27,29.83,10.0,South,18.4,23.0,N/A,,Clear,180,2012-12-05 22:15:00
4:35 PM,58.8,25.2,28,29.83,10.0,South,18.4,24.2,N/A,,Clear,180,2012-12-05 22:35:00
4:55 PM,59.0,25.5,28,29.82,10.0,South,18.4,-,N/A,,Clear,180,2012-12-05 22:55:00
5:15 PM,59.0,25.2,27,29.82,10.0,South,16.1,25.3,N/A,,Clear,180,2012-12-05 23:15:00
5:35 PM,58.1,24.8,28,29.83,10.0,South,10.4,20.7,N/A,,Clear,180,2012-12-05 23:35:00
5:55 PM,57.4,24.8,29,29.83,10.0,South,9.2,-,N/A,,Clear,180,2012-12-05 23:55:00
6:15 PM,57.6,24.3,28,29.83,10.0,South,12.7,19.6,N/A,,Clear,190,2012-12-06 00:15:00
6:35 PM,56.3,23.9,29,29.82,10.0,SSE,11.5,-,N/A,,Clear,160,2012-12-06 00:35:00
6:55 PM,55.9,23.9,29,29.82,10.0,South,10.4,-,N/A,,Clear,170,2012-12-06 00:55:00
7:15 PM,55.9,24.1,29,29.81,10.0,South,15.0,-,N/A,,Clear,170,2012-12-06 01:15:00
7:35 PM,55.6,23.9,29,29.80,10.0,South,17.3,-,N/A,,Scattered Clouds,170,2012-12-06 01:35:00
7:55 PM,55.4,23.5,29,29.80,10.0,South,16.1,-,N/A,,Scattered Clouds,190,2012-12-06 01:55:00
8:15 PM,55.0,23.0,29,29.81,10.0,South,18.4,-,N/A,,Clear,180,2012-12-06 02:15:00
8:35 PM,54.9,23.0,29,29.81,10.0,South,18.4,21.9,N/A,,Clear,190,2012-12-06 02:35:00
8:55 PM,54.5,23.0,29,29.82,10.0,South,16.1,-,N/A,,Clear,190,2012-12-06 02:55:00
9:15 PM,53.8,22.8,30,29.82,10.0,South,15.0,19.6,N/A,,Clear,190,2012-12-06 03:15:00
9:35 PM,52.7,22.8,31,29.82,10.0,South,11.5,-,N/A,,Scattered Clouds,170,2012-12-06 03:35:00
9:55 PM,52.7,23.0,31,29.82,10.0,South,12.7,-,N/A,,Scattered Clouds,190,2012-12-06 03:55:00
10:15 PM,52.2,23.0,32,29.82,10.0,South,10.4,-,N/A,,Clear,190,2012-12-06 04:15:00
10:35 PM,52.2,23.0,32,29.82,10.0,South,6.9,-,N/A,,Clear,190,2012-12-06 04:35:00
10:55 PM,52.2,23.0,32,29.82,10.0,SSW,6.9,-,N/A,,Clear,210,2012-12-06 04:55:00
11:15 PM,52.0,23.0,32,29.81,10.0,South,6.9,-,N/A,,Clear,180,2012-12-06 05:15:00
11:35 PM,52.0,22.8,32,29.80,10.0,South,10.4,16.1,N/A,,Clear,190,2012-12-06 05:35:00
11:55 PM,52.7,22.6,31,29.81,10.0,SW,10.4,-,N/A,,Clear,220,2012-12-06 05:55:00